Simultaneous Nadir Overpasses (SNOs) Predictions

Prediction of SNOs over PacNW region [( 10.00, 139.50) to ( 22.70, 165.60)] between AQUA and NPP Satellites:

Table of predicted SNOs over PacNW region for the next 30.0 days since TLE Epoch: 9/11/2016
Index Date (AQUA) Time (AQUA) AQUA Lat,Lon Date (NPP) Time (NPP) NPP Lat,Lon Distance(km) Time Diff (sec)
1 09/13/2016 03:31:17 22.67, 147.53 09/13/2016 03:27:48 23.46, 145.69 207.48 209
2 09/18/2016 15:58:51 22.60, 147.48 09/18/2016 16:01:59 23.22, 144.69 293.93 188
3 09/26/2016 15:09:19 22.62, 159.86 09/26/2016 15:11:08 23.19, 157.40 260.35 109
4 09/29/2016 03:31:07 22.64, 147.55 09/29/2016 03:27:38 23.64, 145.69 221.16 209
5 10/04/2016 15:58:40 22.59, 147.51 10/04/2016 16:01:47 23.20, 144.73 292.73 187




NCC Satellite Simultaneous Nadir Overpasses (SNOs) Prediction Service
